Regional Weather Roundup
Issued by NWS

Home | Current Version | Previous Version | Graphics & Text | Print | Product List | Glossary On
Versions: 1 2 3 4 5 6 7 8 9 10 11 12 13 14 15 16 17 18 19 20 21 22 23 24 25 26 27 28 29 30 31 32 33 34 35 36 37 38 39 40 41 42 43 44 45 46 47 48 49 50
000
ASUS43 KLSX 060157
RWRMO

WEATHER SUMMARY FOR MISSOURI
NATIONAL WEATHER SERVICE SPRINGFIELD MO
900 PM CDT THU MAY 05 2016

NOTE: "FAIR" INDICATES FEW OR NO CLOUDS BELOW 12,000 FEET WITH NO
       SIGNIFICANT WEATHER AND/OR OBSTRUCTIONS TO VISIBILITY.
       CURRENT SKY AND/OR WEATHER CONDITIONS ARE NOT AVAILABLE FOR
       CHILLICOTHE AND FARMINGTON.

MOZ001>031-035>038-043-044-053-054-060300-
...NORTHERN AND WESTERN MISSOURI...

CITY           SKY/WX    TMP DP  RH WIND       PRES   REMARKS
KANSAS CTY INT PTCLDY    65  37  35 E5        30.03R
LEE`S SUMMIT   CLEAR     65  36  34 CALM      30.03S
ST JOSEPH      CLEAR     62  44  51 S6        30.02S
CHILLICOTHE      N/A     56  47  71 CALM      30.04R

$$
MOZ066>068-077>081-088>096-101>105-060300-
...SOUTHWEST MISSOURI...

CITY           SKY/WX    TMP DP  RH WIND       PRES   REMARKS
SPRINGFIELD    CLEAR     61  33  35 NW3       30.03R
JOPLIN         CLEAR     61  44  53 NE5       30.03R
BRANSON        PTCLDY    61  37  41 CALM      30.04R

$$
MOZ032>034-039>042-045>050-055>058-069>072-060300-
...CENTRAL MISSOURI...

CITY           SKY/WX    TMP DP  RH WIND       PRES   REMARKS
COLUMBIA       NOT AVBL
JEFFERSON CITY CLEAR     58  42  55 CALM      30.02R
ROLLA          CLEAR     54  39  57 CALM      30.01R
SEDALIA        CLEAR     63  33  32 CALM      30.04R
WARRENSBURG    CLEAR     63  34  34 CALM      30.03R

$$
MOZ051-052-059>065-060300-
...EAST CENTRAL MISSOURI...

CITY           SKY/WX    TMP DP  RH WIND       PRES   REMARKS
ST LOUIS INTL  PTCLDY    62  43  49 NW3       30.01S

$$
MOZ072>076-082>087-097>100-106>115-060300-
...SOUTH CENTRAL AND SOUTHEAST MISSOURI...

CITY           SKY/WX    TMP DP  RH WIND       PRES   REMARKS
CAPE GIRARDEAU CLEAR     52  45  77 CALM      30.01R
POPLAR BLUFF   CLEAR     57  45  64 NE3       30.01R
WEST PLAINS    CLEAR     58  33  39 N5        30.03R

$$


USA.gov is the U.S. government's official web portal to all federal, state and local government web resources and services.